Location: Newark
(37.9128°N, 122.4756°W)
Time: 03:16:33
(UTC+00:00)

ISS - Pass Details

Date: 22 November 2019
Orbit: 411 x 421 km, 51.6° (Epoch: 09 December)

Event Time Altitude Azimuth Distance (km) Brightness Sun altitude
Rises 03:29:23 0° 259° (W) 2,350 1.2 -30.3°
Reaches altitude 10° 03:31:43 10° 274° (W) 1,492 -0.1 -30.8°
Enters shadow 03:32:13 13° 279° (W) 1,328 -0.4 -30.9°
